{"data":{"norad_id":65178,"epoch":"2026-05-25T02:14:11.829408Z","epoch_age_seconds":64119,"freshness":"FRESH","line1":"1 65178U 25175E   26145.09319247  .00003532  00000+0  24869-3 0  9994","line2":"2 65178  97.4513  17.5389 0002560  85.1402 275.0117 15.05656906 44132","mean_motion":15.05656906,"eccentricity":0.000256,"inclination_deg":97.4513,"raan_deg":17.5389,"arg_perigee_deg":85.1402,"mean_anomaly_deg":275.0117,"bstar":0.00024869,"rev_number":4413,"period_min":95.639318244524,"perigee_km":547.71649814526,"apogee_km":551.26344315424,"semimajor_km":6927.6269706498,"source":"CELESTRAK","updated_at":"2026-05-25T13:38:20.689542Z"}}